Regional Weather Roundup
Issued by NWS

Home | Current Version | Previous Version | Graphics & Text | Print | Product List | Glossary On
Versions: 1 2 3 4 5 6 7 8 9 10 11 12 13 14 15 16 17 18 19 20 21 22 23 24 25 26 27 28 29 30 31 32 33 34 35 36 37 38 39 40 41 42 43 44 45 46 47 48 49 50
000
ASUS45 KPSR 130400
RWRAZ

PRELIMINARY ARIZONA REGIONAL HOURLY WEATHER ROUNDUP
NATIONAL WEATHER SERVICE PHOENIX AZ
900 PM MST SAT JUL 12 2014

NOTE: FAIR INDICATES FEW OR NO CLOUDS BELOW 12,000 FEET WITH NO
SIGNIFICANT WEATHER AND/OR OBSTRUCTIONS TO VISIBILITY.

AZZ001>003-036-130500-
NORTHWEST ARIZONA

CITY           SKY/WX    TMP DP  RH WIND       PRES   REMARKS
KINGMAN        PTCLDY    87  46  24 SW9       30.02R
$$

AZZ004>008-015-016-018-130500-
NORTH CENTRAL ARIZONA

CITY           SKY/WX    TMP DP  RH WIND       PRES   REMARKS
GRAND CANYON   CLEAR     66  51  58 CALM      30.27R
WILLIAMS       MOCLDY    72  50  46 SE7       30.35R
PRESCOTT       CLOUDY    77  53  43 SE20G26   30.17R
FLAGSTAFF      MOCLDY    61  57  87 CALM      30.33R
PAYSON         CLOUDY    68  63  83 E6        30.22R
PAGE           CLEAR     92  41  17 SE3       30.03R
$$

AZZ009>014-017-130500-
NORTHEAST ARIZONA

CITY           SKY/WX    TMP DP  RH WIND       PRES   REMARKS
WINSLOW        NOT AVBL
SAINT JOHNS    LGT RAIN  68  61  78 SE13      30.26R
WINDOW ROCK    CLOUDY    69  53  56 SW3       30.31S
$$

AZZ023-130500-
GREATER PHOENIX AREA

CITY           SKY/WX    TMP DP  RH WIND       PRES   REMARKS
PHOENIX        CLOUDY    98  60  28 E14       29.83R
DEER VALLEY    CLOUDY    95  58  28 E8        29.86R
SCOTTSDALE     CLOUDY    96  59  29 S3        29.87R
MESA-GATEWAY   PTCLDY    93  57  29 NE10      29.88R
CHANDLER       MOCLDY    93  63  36 NE13      29.84R
$$

AZZ027-028-130500-
SOUTHWEST MARICOPA COUNTY AND PINAL COUNTY

CITY           SKY/WX    TMP DP  RH WIND       PRES   REMARKS
CASA GRANDE    MOCLDY    91  61  35 E10       29.86R
$$

AZZ503-504-507>509-130500-
SOUTHEAST ARIZONA

CITY           SKY/WX    TMP DP  RH WIND       PRES   REMARKS
TUCSON         MOCLDY    89  55  31 W6        29.98R
NOGALES        CLOUDY    74  62  66 SE12      30.13R
SIERRA VISTA   TSTM      69  62  78 S12       30.19R
DOUGLAS        LGT RAIN  68  64  87 NW8       30.16R
SAFFORD        PTCLDY    80  59  48 CALM      30.00R
$$

AZZ020-021-025-026-031-130500-
SOUTHWEST ARIZONA

CITY           SKY/WX    TMP DP  RH WIND       PRES   REMARKS
YUMA           NOT AVBL
$$

CAZ031-033-041-043-047-048-061-130500-
SOUTHERN CALIFORNIA

CITY           SKY/WX    TMP DP  RH WIND       PRES   REMARKS
DOWNTOWN L.A.  CLEAR     70  60  70 W3        29.93R
L.A. AIRPORT   PTCLDY    68  61  78 SW7       29.94R
SAN DIEGO      PTCLDY    70  61  73 NW6       29.96S
BURBANK        CLEAR     72  58  61 SE7       29.93R
ONTARIO        MOCLDY    76  60  57 W7        29.94R
RIVERSIDE      PTCLDY    76  57  51 W6        29.94R
PALM SPRINGS   PTCLDY    96  54  24 NW18      29.81R
EL CENTRO NAS  CLEAR     97  40  14 CALM      29.74R
IMPERIAL       CLEAR     93  50  23 W5        29.73S
BLYTHE         CLEAR    102  50  17 S3        29.75R
NEEDLES        CLEAR    100  43  14 W15       29.80R
$$

NVZ020-UTZ003-130500-
SOUTHERN NEVADA-UTAH

CITY           SKY/WX    TMP DP  RH WIND       PRES   REMARKS
LAS VEGAS      MOCLDY   100  39  12 S5        29.87R
SALT LAKE CITY PTCLDY    84  58  40 NW7       30.13R
$$

NMZ009-TXZ055-130500-
NEW MEXICO-WEST TEXAS

CITY           SKY/WX    TMP DP  RH WIND       PRES   REMARKS
ALBUQUERQUE    PTCLDY    79  46  31 SE13      30.19R
EL PASO        MOCLDY    78  58  49 SE6       30.10R
$$


........................KEY........................
SKY/WX - SKY CONDITION/WEATHER
TMP    - TEMPERATURE IN FAHRENHEIT
DP     - DEW POINT IN FAHRENHEIT
RH     - RELATIVE HUMIDITY IN PERCENT
WIND   - DIRECTION AND SPEED IN MILES PER HOUR (MPH)
VRB    - VARIABLE WIND DIRECTION
PRES   - MEAN SEA LEVEL PRESSURE IN INCHES OF MERCURY
         F - FALLING PRESSURE   R - RISING PRESSURE
         S - STEADY PRESSURE
VSB    - VISIBILITY IN MILES
HX     - HEAT INDEX IN FAHRENHEIT
WCI    - WIND CHILL INDEX IN FAHRENHEIT
TC     - TEMPERATURE IN CELSIUS WHICH IS ALSO KNOWN AS
         TEMPERATURE IN CENTIGRADE
AFB    - AIR FORCE BASE
         LUKE AFB IS LUKE AIR FORCE BASE
         DAVIS-MONTHAN IS DAVIS-MONTHAN AIR FORCE BASE
NAS    - NAVAL AIR STATION
         EL CENTRO NAS IS EL CENTRO NAVAL AIR STATION
N/A    - NOT AVAILABLE


USA.gov is the U.S. government's official web portal to all federal, state and local government web resources and services.